Tracking 27188 objects as of 1-Apr-2023
HD Live streaming from Space Station
objects crossing your sky now

STARLINK-5501

Track STARLINK-5501 now!
10-day predictions
STARLINK-5501 is classified as:


NORAD ID: 55648
Int'l Code: 2023-021W
Perigee: 364.1 km
Apogee: 368.4 km
Inclination: 70.0 °
Period: 91.7 minutes
Semi major axis: 6737 km
RCS: Unknown
Launch date: February 17, 2023
Source: United States (US)
Launch site: AIR FORCE WESTERN TEST RANGE (AFWTR)
Your satellite tracking list
Your tracking list is empty




NASA's NSSDC Master Catalog

Two Line Element Set (TLE):
1 55648U 23021W   23091.22487804  .00000246  00000-0  38105-5 0  9990
2 55648  70.0010  30.5754 0003163 257.0865 102.9977 15.69925933  7215
Source of the keplerian elements: AFSPC